Showing default

QIANFAN-95, 66037

Orbit data source: Space-Track

QIANFAN-95, 66037 is a Chinese payload satellite in LEO that was launched on Fri, 17 Oct 2025 UTC via a CHANG ZHENG 6A launch vehicle from the Taiyaun Space Center, China (TSC). Payload-class satellites include a variety of spacecraft equipped with specific instruments for various scientific and technological missions. These include communications satellites like Starlink; space stations such as the ISS; scientific satellites like the Hubble; Earth observation satellites from companies like Planet Labs, Umbra, and HawkEye 360; GPS; miniature CubeSats for education and research; and military/defense satellites.

Loading next visibility...
Identifier
66037, 2025-233E
Orbit
LEO
Country
Flag of CNCN / PRC
Related business
Manufacturer
SECM
Mission
Operational Commercial Communications
Bus & Motor
QIANFAN, Unknown motor
Mass
267 kg wet, ~267 kg dry
Launch date (UTC)
2025-10-17 (8 months ago)
Launch vehicle
CHANG ZHENG 6A
Launch site
Taiyaun Space Center, China (TSC)
Object type
Payload
Rocket body
Debris
Shape & HBR
Box + 1 Pan, 14.5 m
Radar Cross Section
13.200 m², Large (>1 m²)

Expand to show TLE details & history
Last TLE update: 10 hours ago

TLE from 10 hours ago
0 QIANFAN-95
1 66037U 25233E   26177.62561160  .00000103  00000-0  14148-3 0  9992
2 66037  88.9999  41.7076 0001902  89.0037 271.1332 13.51014418 34756
Epoch: 2026-06-26T15:00Z
TLE epoch observation values (Epoch: 2026-06-26T15:00:52.842Z)
Latitude
-0.00002°
Longitude
-98.264°
Altitude
1,071.454 km
Speed
7.316 km/s
True Right ascension
02h 46m 49s
True Declination
0° 00' 00"
Sunlit
Object was in daylight at epoch
Visualization orbit readout
Latitude
Unknown
Longitude
Unknown
Altitude
Unknown
Speed
Unknown
Apparent Right ascension
Unknown
Apparent Declination
Unknown
Sunlit
N/A
Visualization observer readout
Local Sidereal Time
12:09:01
Azimuth
Unknown
Elevation
Unknown
Doppler factor
Unknown
Orbital elements
Apogee altitude
1,066.995 km
Perigee altitude
1,064.164 km
Semi-major axis
7,443.717 km
Eccentricity
0.00019
Inclination
88.9999°
RAAN
41.7076°
Arg. of periapsis
89.0037°
True anomaly
271.11141°
Mean anomaly
271.1332°
Eccentric anomaly
271.1223°
Mean motion
3.37955 °/min
Orbital period
106.52 mins
BSTAR
0.00014148
Loading maneuver chart data...
Computing Atmospheric mass density...
Loading historical data...
Loading historical data...
Loading historical data...
Loading historical data...
Loading historical data...
Loading historical data...
Loading historical data...

Documentation

Showing up to 5 results
|